Year,Month,Day,Hour,Minute,Value (Times are PST for temperature in C)
2016,08,19,00,00,23.80
2016,08,19,00,01,23.80
2016,08,19,00,02,23.90
2016,08,19,00,03,23.90
2016,08,19,00,04,23.90
2016,08,19,00,05,24.00
2016,08,19,00,06,24.00
2016,08,19,00,07,24.00
2016,08,19,00,08,24.00
2016,08,19,00,09,24.00
2016,08,19,00,10,24.00
2016,08,19,00,11,24.00
2016,08,19,00,12,24.00
2016,08,19,00,13,24.10
2016,08,19,00,14,24.10
2016,08,19,00,15,24.10
2016,08,19,00,16,24.10
2016,08,19,00,17,24.10
2016,08,19,00,18,24.10
2016,08,19,00,19,24.20
2016,08,19,00,20,24.20
2016,08,19,00,21,24.30
2016,08,19,00,22,24.40
2016,08,19,00,23,24.40
2016,08,19,00,24,24.40
2016,08,19,00,25,24.50
2016,08,19,00,26,24.50
2016,08,19,00,27,24.60
2016,08,19,00,28,24.60
2016,08,19,00,29,24.70
2016,08,19,00,30,24.70
2016,08,19,00,31,24.70
2016,08,19,00,32,24.70
2016,08,19,00,33,24.80
2016,08,19,00,34,24.80
2016,08,19,00,35,24.90
2016,08,19,00,36,25.00
2016,08,19,00,37,25.10
2016,08,19,00,38,25.20
2016,08,19,00,39,25.30
2016,08,19,00,40,25.40
2016,08,19,00,41,25.40
2016,08,19,00,42,25.50
2016,08,19,00,43,25.50
2016,08,19,00,44,25.60
2016,08,19,00,45,25.60
2016,08,19,00,46,25.60
2016,08,19,00,47,25.60
2016,08,19,00,48,25.60
2016,08,19,00,49,25.60
2016,08,19,00,50,25.60
2016,08,19,00,51,25.60
2016,08,19,00,52,25.60
2016,08,19,00,53,25.70
2016,08,19,00,54,25.70
2016,08,19,00,55,25.70
2016,08,19,00,56,25.60
2016,08,19,00,57,25.60
2016,08,19,00,58,25.50
2016,08,19,00,59,25.50
2016,08,19,01,00,25.50
2016,08,19,01,01,25.40
2016,08,19,01,02,25.40
2016,08,19,01,03,25.40
2016,08,19,01,04,25.30
2016,08,19,01,05,25.30
2016,08,19,01,06,25.30
2016,08,19,01,07,25.20
2016,08,19,01,08,25.20
2016,08,19,01,09,25.20
2016,08,19,01,10,25.20
2016,08,19,01,11,25.20
2016,08,19,01,12,25.10
2016,08,19,01,13,25.10
2016,08,19,01,14,25.10
2016,08,19,01,15,25.10
2016,08,19,01,16,25.10
2016,08,19,01,17,25.10
2016,08,19,01,18,25.10
2016,08,19,01,19,25.10
2016,08,19,01,20,25.00
2016,08,19,01,21,25.10
2016,08,19,01,22,25.10
2016,08,19,01,23,25.10
2016,08,19,01,24,25.10
2016,08,19,01,25,25.10
2016,08,19,01,26,25.10
2016,08,19,01,27,25.20
2016,08,19,01,28,25.20
2016,08,19,01,29,25.20
2016,08,19,01,30,25.20
2016,08,19,01,31,25.20
2016,08,19,01,32,25.20
2016,08,19,01,33,25.20
2016,08,19,01,34,25.30
2016,08,19,01,35,25.40
2016,08,19,01,36,25.50
2016,08,19,01,37,25.60
2016,08,19,01,38,25.60
2016,08,19,01,39,25.70
2016,08,19,01,40,25.80
2016,08,19,01,41,25.90
2016,08,19,01,42,25.90
2016,08,19,01,43,26.00
2016,08,19,01,44,26.10
2016,08,19,01,45,26.20
2016,08,19,01,46,26.20
2016,08,19,01,47,26.30
2016,08,19,01,48,26.30
2016,08,19,01,49,26.30
2016,08,19,01,50,26.40
2016,08,19,01,51,26.40
2016,08,19,01,52,26.40
2016,08,19,01,53,26.50
2016,08,19,01,54,26.50
2016,08,19,01,55,26.50
2016,08,19,01,56,26.50
2016,08,19,01,57,26.50
2016,08,19,01,58,26.50
2016,08,19,01,59,26.50
2016,08,19,02,00,26.40
2016,08,19,02,01,26.40
2016,08,19,02,02,26.40
2016,08,19,02,03,26.40
2016,08,19,02,04,26.40
2016,08,19,02,05,26.40
2016,08,19,02,06,26.30
2016,08,19,02,07,26.30
2016,08,19,02,08,26.30
2016,08,19,02,09,26.20
2016,08,19,02,10,26.20
2016,08,19,02,11,26.20
2016,08,19,02,12,26.20
2016,08,19,02,13,26.10
2016,08,19,02,14,26.10
2016,08,19,02,15,26.00
2016,08,19,02,16,26.00
2016,08,19,02,17,26.00
2016,08,19,02,18,25.90
2016,08,19,02,19,25.90
2016,08,19,02,20,25.90
2016,08,19,02,21,25.90
2016,08,19,02,22,25.80
2016,08,19,02,23,25.80
2016,08,19,02,24,25.80
2016,08,19,02,25,25.80
2016,08,19,02,26,25.80
2016,08,19,02,27,25.80
2016,08,19,02,28,25.70
2016,08,19,02,29,25.70
2016,08,19,02,30,25.70
2016,08,19,02,31,25.70
2016,08,19,02,32,25.70
2016,08,19,02,33,25.70
2016,08,19,02,34,25.70
2016,08,19,02,35,25.70
2016,08,19,02,36,25.60
2016,08,19,02,37,25.60
2016,08,19,02,38,25.60
2016,08,19,02,39,25.60
2016,08,19,02,40,25.60
2016,08,19,02,41,25.70
2016,08,19,02,42,25.70
2016,08,19,02,43,25.70
2016,08,19,02,44,25.70
2016,08,19,02,45,25.70
2016,08,19,02,46,25.70
2016,08,19,02,47,25.70
2016,08,19,02,48,25.70
2016,08,19,02,49,25.70
2016,08,19,02,50,25.70
2016,08,19,02,51,25.70
2016,08,19,02,52,25.70
2016,08,19,02,53,25.70
2016,08,19,02,54,25.70
2016,08,19,02,55,25.70
2016,08,19,02,56,25.60
2016,08,19,02,57,25.60
2016,08,19,02,58,25.60
2016,08,19,02,59,25.60
2016,08,19,03,00,25.60
2016,08,19,03,01,25.50
2016,08,19,03,02,25.50
2016,08,19,03,03,25.40
2016,08,19,03,04,25.40
2016,08,19,03,05,25.30
2016,08,19,03,06,25.30
2016,08,19,03,07,25.30
2016,08,19,03,08,25.30
2016,08,19,03,09,25.30
2016,08,19,03,10,25.20
2016,08,19,03,11,25.20
2016,08,19,03,12,25.20
2016,08,19,03,13,25.20
2016,08,19,03,14,25.20
2016,08,19,03,15,25.10
2016,08,19,03,16,25.10
2016,08,19,03,17,25.10
2016,08,19,03,18,25.10
2016,08,19,03,19,25.10
2016,08,19,03,20,25.10
2016,08,19,03,21,25.00
2016,08,19,03,22,25.00
2016,08,19,03,23,25.00
2016,08,19,03,24,25.00
2016,08,19,03,25,24.90
2016,08,19,03,26,24.90
2016,08,19,03,27,24.90
2016,08,19,03,28,24.90
2016,08,19,03,29,24.90
2016,08,19,03,30,24.90
2016,08,19,03,31,24.90
2016,08,19,03,32,24.90
2016,08,19,03,33,24.80
2016,08,19,03,34,24.80
2016,08,19,03,35,24.80
2016,08,19,03,36,24.80
2016,08,19,03,37,24.70
2016,08,19,03,38,24.70
2016,08,19,03,39,24.70
2016,08,19,03,40,24.70
2016,08,19,03,41,24.60
2016,08,19,03,42,24.60
2016,08,19,03,43,24.60
2016,08,19,03,44,24.60
2016,08,19,03,45,24.60
2016,08,19,03,46,24.60
2016,08,19,03,47,24.60
2016,08,19,03,48,24.50
2016,08,19,03,49,24.50
2016,08,19,03,50,24.50
2016,08,19,03,51,24.50
2016,08,19,03,52,24.50
2016,08,19,03,53,24.60
2016,08,19,03,54,24.60
2016,08,19,03,55,24.60
2016,08,19,03,56,24.50
2016,08,19,03,57,24.50
2016,08,19,03,58,24.50
2016,08,19,03,59,24.50
2016,08,19,04,00,24.50
2016,08,19,04,01,24.50
2016,08,19,04,02,24.50
2016,08,19,04,03,24.40
2016,08,19,04,04,24.40
2016,08,19,04,08,24.40
2016,08,19,04,09,24.40
2016,08,19,04,10,24.40
2016,08,19,04,11,24.40
2016,08,19,04,12,24.40
2016,08,19,04,13,24.40
2016,08,19,04,14,24.30
2016,08,19,04,15,24.30
2016,08,19,04,16,24.30
2016,08,19,04,17,24.30
2016,08,19,04,18,24.30
2016,08,19,04,19,24.40
2016,08,19,04,20,24.40
2016,08,19,04,21,24.40
2016,08,19,04,22,24.30
2016,08,19,04,23,24.30
2016,08,19,04,24,24.30
2016,08,19,04,25,24.30
2016,08,19,04,26,24.30
2016,08,19,04,27,24.30
2016,08,19,04,28,24.30
2016,08,19,04,29,24.30
2016,08,19,04,30,24.30
2016,08,19,04,31,24.40
2016,08,19,04,32,24.40
2016,08,19,04,33,24.40
2016,08,19,04,34,24.40
2016,08,19,04,35,24.30
2016,08,19,04,36,24.30
2016,08,19,04,37,24.30
2016,08,19,04,38,24.30
2016,08,19,04,39,24.30
2016,08,19,04,40,24.30
2016,08,19,04,41,24.30
2016,08,19,04,42,24.30
2016,08,19,04,43,24.30
2016,08,19,04,44,24.20
2016,08,19,04,45,24.20
2016,08,19,04,46,24.20
2016,08,19,04,47,24.20
2016,08,19,04,48,24.20
2016,08,19,04,49,24.20
2016,08,19,04,50,24.20
2016,08,19,04,51,24.20
2016,08,19,04,52,24.10
2016,08,19,04,53,24.10
2016,08,19,04,54,24.10
2016,08,19,04,55,24.10
2016,08,19,04,56,24.10
2016,08,19,04,57,24.20
2016,08,19,04,58,24.20
2016,08,19,04,59,24.10
2016,08,19,05,00,24.10
2016,08,19,05,01,24.10
2016,08,19,05,02,24.10
2016,08,19,05,03,24.10
2016,08,19,05,04,24.10
2016,08,19,05,05,24.10
2016,08,19,05,06,24.10
2016,08,19,05,07,24.10
2016,08,19,05,08,24.10
2016,08,19,05,09,24.10
2016,08,19,05,10,24.10
2016,08,19,05,11,24.10
2016,08,19,05,12,24.00
2016,08,19,05,13,24.00
2016,08,19,05,14,24.00
2016,08,19,05,15,24.00
2016,08,19,05,16,24.00
2016,08,19,05,17,24.00
2016,08,19,05,18,24.00
2016,08,19,05,19,24.00
2016,08,19,05,20,24.00
2016,08,19,05,21,24.00
2016,08,19,05,22,23.90
2016,08,19,05,23,23.90
2016,08,19,05,24,23.90
2016,08,19,05,25,23.80
2016,08,19,05,26,23.80
2016,08,19,05,27,23.80
2016,08,19,05,28,23.80
2016,08,19,05,29,23.70
2016,08,19,05,30,23.70
2016,08,19,05,31,23.70
2016,08,19,05,32,23.70
2016,08,19,05,33,23.70
2016,08,19,05,34,23.60
2016,08,19,05,35,23.60
2016,08,19,05,36,23.60
2016,08,19,05,37,23.60
2016,08,19,05,38,23.60
2016,08,19,05,39,23.60
2016,08,19,05,40,23.50
2016,08,19,05,41,23.50
2016,08,19,05,42,23.40
2016,08,19,05,43,23.40
2016,08,19,05,44,23.30
2016,08,19,05,45,23.30
2016,08,19,05,46,23.20
2016,08,19,05,47,23.20
2016,08,19,05,48,23.20
2016,08,19,05,49,23.10
2016,08,19,05,50,23.10
2016,08,19,05,51,23.00
2016,08,19,05,52,22.90
2016,08,19,05,53,22.70
2016,08,19,05,54,22.60
2016,08,19,05,55,22.50
2016,08,19,05,56,22.40
2016,08,19,05,57,22.30
2016,08,19,05,58,22.30
2016,08,19,05,59,22.20
2016,08,19,06,00,22.20
2016,08,19,06,01,22.10
2016,08,19,06,02,22.10
2016,08,19,06,03,22.10
2016,08,19,06,04,22.10
2016,08,19,06,05,22.10
2016,08,19,06,06,22.10
2016,08,19,06,07,22.10
2016,08,19,06,08,22.10
2016,08,19,06,09,22.10
2016,08,19,06,10,22.10
2016,08,19,06,11,22.10
2016,08,19,06,12,22.00
2016,08,19,06,13,22.00
2016,08,19,06,14,21.90
2016,08,19,06,15,21.80
2016,08,19,06,16,21.80
2016,08,19,06,17,21.70
2016,08,19,06,18,21.60
2016,08,19,06,19,21.50
2016,08,19,06,20,21.50
2016,08,19,06,21,21.40
2016,08,19,06,22,21.40
2016,08,19,06,23,21.40
2016,08,19,06,24,21.40
2016,08,19,06,25,21.30
2016,08,19,06,26,21.30
2016,08,19,06,27,21.20
2016,08,19,06,28,21.20
2016,08,19,06,29,21.10
2016,08,19,06,30,21.10
2016,08,19,06,31,21.10
2016,08,19,06,32,21.10
2016,08,19,06,33,21.10
2016,08,19,06,34,21.10
2016,08,19,06,35,21.10
2016,08,19,06,36,21.10
2016,08,19,06,37,21.10
2016,08,19,06,38,21.10
2016,08,19,06,39,21.10
2016,08,19,06,40,21.20
2016,08,19,06,41,21.20
2016,08,19,06,42,21.20
2016,08,19,06,43,21.30
2016,08,19,06,44,21.30
2016,08,19,06,45,21.40
2016,08,19,06,46,21.50
2016,08,19,06,47,21.60
2016,08,19,06,48,21.80
2016,08,19,06,49,22.00
2016,08,19,06,50,22.10
2016,08,19,06,51,22.30
2016,08,19,06,52,22.40
2016,08,19,06,53,22.60
2016,08,19,06,54,22.70
2016,08,19,06,55,22.80
2016,08,19,06,56,22.90
2016,08,19,06,57,22.90
2016,08,19,06,58,23.00
2016,08,19,06,59,23.00
2016,08,19,07,00,23.10
2016,08,19,07,01,23.10
2016,08,19,07,02,23.10
2016,08,19,07,03,23.10
2016,08,19,07,04,23.10
2016,08,19,07,05,23.20
2016,08,19,07,06,23.20
2016,08,19,07,07,23.20
2016,08,19,07,08,23.20
2016,08,19,07,09,23.20
2016,08,19,07,10,23.20
2016,08,19,07,11,23.30
2016,08,19,07,12,23.30
2016,08,19,07,13,23.30
2016,08,19,07,14,23.30
2016,08,19,07,15,23.30
2016,08,19,07,16,23.30
2016,08,19,07,17,23.30
2016,08,19,07,18,23.30
2016,08,19,07,19,23.20
2016,08,19,07,20,23.20
2016,08,19,07,21,23.20
2016,08,19,07,22,23.10
2016,08,19,07,23,23.10
2016,08,19,07,24,23.10
2016,08,19,07,25,23.10
2016,08,19,07,26,23.10
2016,08,19,07,27,23.10
2016,08,19,07,28,23.10
2016,08,19,07,29,23.10
2016,08,19,07,30,23.10
2016,08,19,07,31,23.10
2016,08,19,07,32,23.10
2016,08,19,07,33,23.20
2016,08,19,07,34,23.20
2016,08,19,07,35,23.20
2016,08,19,07,36,23.20
2016,08,19,07,37,23.30
2016,08,19,07,38,23.30
2016,08,19,07,39,23.40
2016,08,19,07,40,23.40
2016,08,19,07,41,23.40
2016,08,19,07,42,23.50
2016,08,19,07,43,23.50
2016,08,19,07,44,23.60
2016,08,19,07,45,23.60
2016,08,19,07,46,23.70
2016,08,19,07,47,23.70
2016,08,19,07,48,23.70
2016,08,19,07,49,23.80
2016,08,19,07,50,23.80
2016,08,19,07,51,23.80
2016,08,19,07,52,23.90
2016,08,19,07,53,23.90
2016,08,19,07,54,23.90
2016,08,19,07,55,23.90
2016,08,19,07,56,24.00
2016,08,19,07,57,24.00
2016,08,19,07,58,24.00
2016,08,19,07,59,24.10
2016,08,19,08,00,24.10
2016,08,19,08,01,24.10
2016,08,19,08,02,24.10
2016,08,19,08,03,24.10
2016,08,19,08,04,24.20
2016,08,19,08,05,24.20
2016,08,19,08,06,24.20
2016,08,19,08,07,24.20
2016,08,19,08,08,24.20
2016,08,19,08,09,24.20
2016,08,19,08,10,24.10
2016,08,19,08,11,24.10
2016,08,19,08,12,24.10
2016,08,19,08,13,24.10
2016,08,19,08,14,24.00
2016,08,19,08,15,24.00
2016,08,19,08,16,24.00
2016,08,19,08,17,23.90
2016,08,19,08,18,23.90
2016,08,19,08,19,23.90
2016,08,19,08,20,23.90
2016,08,19,08,21,23.80
2016,08,19,08,22,23.80
2016,08,19,08,23,23.80
2016,08,19,08,24,23.80
2016,08,19,08,25,23.80
2016,08,19,08,26,23.80
2016,08,19,08,27,23.80
2016,08,19,08,28,23.80
2016,08,19,08,29,23.90
2016,08,19,08,30,23.90
2016,08,19,08,31,24.00
2016,08,19,08,32,24.00
2016,08,19,08,33,24.10
2016,08,19,08,34,24.10
2016,08,19,08,35,24.20
2016,08,19,08,36,24.30
2016,08,19,08,37,24.30
2016,08,19,08,38,24.30
2016,08,19,08,39,24.40
2016,08,19,08,40,24.40
2016,08,19,08,41,24.40
2016,08,19,08,42,24.50
2016,08,19,08,43,24.50
2016,08,19,08,44,24.60
2016,08,19,08,45,24.60
2016,08,19,08,46,24.60
2016,08,19,08,47,24.60
2016,08,19,08,48,24.60
2016,08,19,08,49,24.60
2016,08,19,08,50,24.60
2016,08,19,08,51,24.70
2016,08,19,08,52,24.70
2016,08,19,08,53,24.70
2016,08,19,08,54,24.80
2016,08,19,08,55,24.80
2016,08,19,08,56,24.80
2016,08,19,08,57,24.80
2016,08,19,08,58,24.80
2016,08,19,08,59,24.90
2016,08,19,09,00,24.90
2016,08,19,09,01,24.90
2016,08,19,09,02,25.00
2016,08,19,09,03,25.00
2016,08,19,09,04,25.10
2016,08,19,09,05,25.10
2016,08,19,09,06,25.10
2016,08,19,09,07,25.20
2016,08,19,09,08,25.20
2016,08,19,09,09,25.30
2016,08,19,09,10,25.30
2016,08,19,09,11,25.30
2016,08,19,09,12,25.40
2016,08,19,09,13,25.40
2016,08,19,09,14,25.40
2016,08,19,09,15,25.50
2016,08,19,09,16,25.60
2016,08,19,09,17,25.60
2016,08,19,09,18,25.60
2016,08,19,09,19,25.70
2016,08,19,09,20,25.70
2016,08,19,09,21,25.70
2016,08,19,09,22,25.70
2016,08,19,09,23,25.70
2016,08,19,09,24,25.60
2016,08,19,09,25,25.60
2016,08,19,09,26,25.60
2016,08,19,09,27,25.50
2016,08,19,09,28,25.50
2016,08,19,09,29,25.50
2016,08,19,09,30,25.50
2016,08,19,09,31,25.50
2016,08,19,09,32,25.50
2016,08,19,09,33,25.50
2016,08,19,09,34,25.50
2016,08,19,09,35,25.50
2016,08,19,09,36,25.60
2016,08,19,09,37,25.60
2016,08,19,09,38,25.60
2016,08,19,09,39,25.70
2016,08,19,09,40,25.70
2016,08,19,09,41,25.80
2016,08,19,09,42,25.80
2016,08,19,09,43,25.90
2016,08,19,09,44,25.90
2016,08,19,09,45,25.90
2016,08,19,09,46,25.90
2016,08,19,09,47,26.00
2016,08,19,09,48,26.00
2016,08,19,09,49,26.00
2016,08,19,09,50,26.00
2016,08,19,09,51,26.00
2016,08,19,09,52,26.00
2016,08,19,09,53,26.10
2016,08,19,09,54,26.10
2016,08,19,09,55,26.20
2016,08,19,09,56,26.20
2016,08,19,09,57,26.30
2016,08,19,09,58,26.30
2016,08,19,09,59,26.40
2016,08,19,10,00,26.40
2016,08,19,10,01,26.40
2016,08,19,10,02,26.40
2016,08,19,10,03,26.40
2016,08,19,10,04,26.50
2016,08,19,10,05,26.50
2016,08,19,10,06,26.50
2016,08,19,10,07,26.50
2016,08,19,10,08,26.40
2016,08,19,10,09,26.40
2016,08,19,10,10,26.50
2016,08,19,10,11,26.50
2016,08,19,10,12,26.60
2016,08,19,10,13,26.60
2016,08,19,10,14,26.60
2016,08,19,10,15,26.60
2016,08,19,10,16,26.60
2016,08,19,10,17,26.60
2016,08,19,10,18,26.60
2016,08,19,10,19,26.70
2016,08,19,10,20,26.70
2016,08,19,10,21,26.70
2016,08,19,10,22,26.70
2016,08,19,10,23,26.70
2016,08,19,10,24,26.60
2016,08,19,10,25,26.60
2016,08,19,10,26,26.70
2016,08,19,10,27,26.70
2016,08,19,10,28,26.70
2016,08,19,10,29,26.80
2016,08,19,10,30,26.80
2016,08,19,10,31,26.80
2016,08,19,10,32,26.90
2016,08,19,10,33,26.90
2016,08,19,10,34,26.90
2016,08,19,10,35,27.00
2016,08,19,10,36,27.00
2016,08,19,10,37,27.00
2016,08,19,10,38,27.10
2016,08,19,10,39,27.10
2016,08,19,10,40,27.10
2016,08,19,10,41,27.10
2016,08,19,10,42,27.10
2016,08,19,10,43,27.20
2016,08,19,10,44,27.20
2016,08,19,10,45,27.30
2016,08,19,10,46,27.30
2016,08,19,10,47,27.30
2016,08,19,10,48,27.30
2016,08,19,10,49,27.40
2016,08,19,10,50,27.40
2016,08,19,10,51,27.40
2016,08,19,10,52,27.50
2016,08,19,10,53,27.50
2016,08,19,10,54,27.50
2016,08,19,10,55,27.40
2016,08,19,10,56,27.40
2016,08,19,10,57,27.30
2016,08,19,10,58,27.30
2016,08,19,10,59,27.30
2016,08,19,11,00,27.30
2016,08,19,11,01,27.30
2016,08,19,11,02,27.40
2016,08,19,11,03,27.40
2016,08,19,11,04,27.40
2016,08,19,11,05,27.40
2016,08,19,11,06,27.50
2016,08,19,11,07,27.60
2016,08,19,11,08,27.60
2016,08,19,11,09,27.60
2016,08,19,11,10,27.60
2016,08,19,11,11,27.60
2016,08,19,11,12,27.60
2016,08,19,11,13,27.60
2016,08,19,11,14,27.50
2016,08,19,11,15,27.50
2016,08,19,11,16,27.40
2016,08,19,11,17,27.30
2016,08,19,11,18,27.30
2016,08,19,11,19,27.30
2016,08,19,11,20,27.30
2016,08,19,11,21,27.30
2016,08,19,11,22,27.30
2016,08,19,11,23,27.30
2016,08,19,11,24,27.40
2016,08,19,11,25,27.40
2016,08,19,11,26,27.50
2016,08,19,11,27,27.60
2016,08,19,11,28,27.70
2016,08,19,11,29,27.70
2016,08,19,11,30,27.70
2016,08,19,11,31,27.70
2016,08,19,11,32,27.60
2016,08,19,11,33,27.60
2016,08,19,11,34,27.50
2016,08,19,11,35,27.50
2016,08,19,11,36,27.40
2016,08,19,11,37,27.30
2016,08,19,11,38,27.30
2016,08,19,11,39,27.30
2016,08,19,11,40,27.30
2016,08,19,11,41,27.30
2016,08,19,11,42,27.30
2016,08,19,11,43,27.30
2016,08,19,11,44,27.30
2016,08,19,11,45,27.30
2016,08,19,11,46,27.40
2016,08,19,11,47,27.40
2016,08,19,11,48,27.40
2016,08,19,11,49,27.40
2016,08,19,11,50,27.50
2016,08,19,11,51,27.60
2016,08,19,11,52,27.60
2016,08,19,11,53,27.60
2016,08,19,11,54,27.60
2016,08,19,11,55,27.60
2016,08,19,11,56,27.50
2016,08,19,11,57,27.50
2016,08,19,11,58,27.40
2016,08,19,11,59,27.40
2016,08,19,12,00,27.40
2016,08,19,12,01,27.40
2016,08,19,12,02,27.40
2016,08,19,12,03,27.40
2016,08,19,12,04,27.40
2016,08,19,12,05,27.40
2016,08,19,12,06,27.40
2016,08,19,12,07,27.40
2016,08,19,12,08,27.40
2016,08,19,12,09,27.40
2016,08,19,12,10,27.50
2016,08,19,12,11,27.50
2016,08,19,12,12,27.60
2016,08,19,12,13,27.60
2016,08,19,12,14,27.70
2016,08,19,12,15,27.70
2016,08,19,12,16,27.80
2016,08,19,12,17,27.80
2016,08,19,12,18,27.80
2016,08,19,12,19,27.90
2016,08,19,12,20,27.90
2016,08,19,12,21,28.00
2016,08,19,12,22,28.00
2016,08,19,12,23,28.10
2016,08,19,12,24,28.20
2016,08,19,12,25,28.30
2016,08,19,12,26,28.30
2016,08,19,12,27,28.40
2016,08,19,12,28,28.40
2016,08,19,12,29,28.30
2016,08,19,12,30,28.40
2016,08,19,12,31,28.40
2016,08,19,12,32,28.40
2016,08,19,12,33,28.40
2016,08,19,12,34,28.40
2016,08,19,12,35,28.40
2016,08,19,12,36,28.50
2016,08,19,12,37,28.60
2016,08,19,12,38,28.70
2016,08,19,12,39,28.80
2016,08,19,12,40,28.80
2016,08,19,12,41,28.90
2016,08,19,12,42,28.90
2016,08,19,12,43,28.80
2016,08,19,12,44,28.80
2016,08,19,12,45,28.80
2016,08,19,12,46,28.80
2016,08,19,12,47,28.80
2016,08,19,12,48,28.80
2016,08,19,12,49,28.70
2016,08,19,12,50,28.70
2016,08,19,12,51,28.70
2016,08,19,12,52,28.70
2016,08,19,12,53,28.60
2016,08,19,12,54,28.60
2016,08,19,12,55,28.60
2016,08,19,12,56,28.60
2016,08,19,12,57,28.60
2016,08,19,12,58,28.60
2016,08,19,12,59,28.60
2016,08,19,13,00,28.60
2016,08,19,13,01,28.60
2016,08,19,13,02,28.70
2016,08,19,13,03,28.70
2016,08,19,13,04,28.80
2016,08,19,13,05,28.90
2016,08,19,13,06,29.00
2016,08,19,13,07,29.10
2016,08,19,13,08,29.20
2016,08,19,13,09,29.30
2016,08,19,13,10,29.40
2016,08,19,13,11,29.40
2016,08,19,13,12,29.50
2016,08,19,13,13,29.50
2016,08,19,13,14,29.60
2016,08,19,13,15,29.60
2016,08,19,13,16,29.60
2016,08,19,13,17,29.60
2016,08,19,13,18,29.60
2016,08,19,13,19,29.50
2016,08,19,13,20,29.40
2016,08,19,13,21,29.40
2016,08,19,13,22,29.40
2016,08,19,13,23,29.40
2016,08,19,13,24,29.30
2016,08,19,13,25,29.30
2016,08,19,13,26,29.30
2016,08,19,13,27,29.30
2016,08,19,13,28,29.30
2016,08,19,13,29,29.30
2016,08,19,13,30,29.30
2016,08,19,13,31,29.30
2016,08,19,13,32,29.40
2016,08,19,13,33,29.40
2016,08,19,13,34,29.40
2016,08,19,13,35,29.40
2016,08,19,13,36,29.50
2016,08,19,13,37,29.60
2016,08,19,13,38,29.70
2016,08,19,13,39,29.70
2016,08,19,13,40,29.80
2016,08,19,13,41,29.80
2016,08,19,13,42,29.80
2016,08,19,13,43,29.80
2016,08,19,13,44,29.80
2016,08,19,13,45,29.80
2016,08,19,13,46,29.80
2016,08,19,13,47,29.80
2016,08,19,13,48,29.80
2016,08,19,13,49,29.80
2016,08,19,13,50,29.70
2016,08,19,13,51,29.70
2016,08,19,13,52,29.70
2016,08,19,13,53,29.70
2016,08,19,13,54,29.80
2016,08,19,13,55,29.80
2016,08,19,13,56,29.80
2016,08,19,13,57,29.90
2016,08,19,13,58,30.00
2016,08,19,13,59,30.00
2016,08,19,14,00,30.10
2016,08,19,14,01,30.10
2016,08,19,14,02,30.10
2016,08,19,14,03,30.10
2016,08,19,14,04,30.10
2016,08,19,14,05,30.10
2016,08,19,14,06,30.10
2016,08,19,14,07,30.10
2016,08,19,14,08,30.20
2016,08,19,14,09,30.30
2016,08,19,14,10,30.30
2016,08,19,14,11,30.40
2016,08,19,14,12,30.50
2016,08,19,14,13,30.60
2016,08,19,14,14,30.70
2016,08,19,14,15,30.80
2016,08,19,14,16,30.80
2016,08,19,14,17,30.90
2016,08,19,14,18,31.00
2016,08,19,14,19,31.10
2016,08,19,14,20,31.10
2016,08,19,14,21,31.20
2016,08,19,14,22,31.20
2016,08,19,14,23,31.30
2016,08,19,14,24,31.40
2016,08,19,14,25,31.40
2016,08,19,14,26,31.50
2016,08,19,14,27,31.40
2016,08,19,14,28,31.30
2016,08,19,14,29,31.30
2016,08,19,14,30,31.20
2016,08,19,14,31,31.10
2016,08,19,14,32,31.10
2016,08,19,14,33,31.00
2016,08,19,14,34,31.00
2016,08,19,14,35,31.00
2016,08,19,14,36,30.90
2016,08,19,14,37,30.90
2016,08,19,14,38,30.80
2016,08,19,14,39,30.80
2016,08,19,14,40,30.80
2016,08,19,14,41,30.80
2016,08,19,14,42,30.70
2016,08,19,14,43,30.70
2016,08,19,14,44,30.70
2016,08,19,14,45,30.70
2016,08,19,14,46,30.70
2016,08,19,14,47,30.70
2016,08,19,14,48,30.70
2016,08,19,14,49,30.70
2016,08,19,14,50,30.80
2016,08,19,14,51,30.80
2016,08,19,14,52,30.80
2016,08,19,14,53,30.80
2016,08,19,14,54,30.80
2016,08,19,14,55,30.80
2016,08,19,14,56,30.80
2016,08,19,14,57,30.90
2016,08,19,14,58,30.90
2016,08,19,14,59,31.00
2016,08,19,15,00,31.00
2016,08,19,15,01,31.00
2016,08,19,15,02,30.90
2016,08,19,15,03,30.90
2016,08,19,15,04,30.80
2016,08,19,15,05,30.80
2016,08,19,15,06,30.80
2016,08,19,15,07,30.90
2016,08,19,15,08,30.90
2016,08,19,15,09,30.90
2016,08,19,15,10,30.90
2016,08,19,15,11,30.90
2016,08,19,15,12,30.90
2016,08,19,15,13,30.90
2016,08,19,15,14,30.80
2016,08,19,15,15,30.80
2016,08,19,15,16,30.80
2016,08,19,15,17,30.90
2016,08,19,15,18,31.00
2016,08,19,15,19,31.10
2016,08,19,15,20,31.10
2016,08,19,15,21,31.00
2016,08,19,15,22,30.90
2016,08,19,15,23,30.90
2016,08,19,15,24,30.80
2016,08,19,15,25,30.80
2016,08,19,15,26,30.80
2016,08,19,15,27,30.90
2016,08,19,15,28,30.90
2016,08,19,15,29,30.90
2016,08,19,15,30,30.90
2016,08,19,15,31,31.00
2016,08,19,15,32,31.00
2016,08,19,15,33,31.10
2016,08,19,15,34,31.20
2016,08,19,15,35,31.30
2016,08,19,15,36,31.40
2016,08,19,15,37,31.50
2016,08,19,15,38,31.60
2016,08,19,15,39,31.70
2016,08,19,15,40,31.80
2016,08,19,15,41,31.80
2016,08,19,15,42,31.90
2016,08,19,15,43,31.90
2016,08,19,15,44,32.10
2016,08,19,15,45,32.20
2016,08,19,15,46,32.20
2016,08,19,15,47,32.20
2016,08,19,15,48,32.20
2016,08,19,15,49,32.10
2016,08,19,15,50,32.10
2016,08,19,15,51,32.10
2016,08,19,15,52,32.00
2016,08,19,15,53,32.00
2016,08,19,15,54,31.90
2016,08,19,15,55,31.90
2016,08,19,15,56,31.90
2016,08,19,15,57,31.80
2016,08,19,15,58,31.80
2016,08,19,15,59,31.70
2016,08,19,16,00,31.70
2016,08,19,16,01,31.70
2016,08,19,16,02,31.60
2016,08,19,16,03,31.70
2016,08,19,16,04,31.70
2016,08,19,16,05,31.80
2016,08,19,16,06,31.90
2016,08,19,16,07,31.90
2016,08,19,16,08,31.90
2016,08,19,16,09,31.90
2016,08,19,16,10,31.90
2016,08,19,16,11,31.90
2016,08,19,16,12,31.80
2016,08,19,16,13,31.80
2016,08,19,16,14,31.80
2016,08,19,16,15,31.80
2016,08,19,16,16,31.80
2016,08,19,16,17,31.70
2016,08,19,16,18,31.70
2016,08,19,16,19,31.70
2016,08,19,16,20,31.60
2016,08,19,16,21,31.70
2016,08,19,16,22,31.70
2016,08,19,16,23,31.80
2016,08,19,16,24,31.90
2016,08,19,16,25,32.00
2016,08,19,16,26,32.10
2016,08,19,16,27,32.30
2016,08,19,16,28,32.40
2016,08,19,16,29,32.60
2016,08,19,16,30,32.70
2016,08,19,16,31,32.80
2016,08,19,16,32,32.90
2016,08,19,16,33,33.00
2016,08,19,16,34,33.00
2016,08,19,16,35,33.00
2016,08,19,16,36,33.10
2016,08,19,16,37,33.10
2016,08,19,16,38,33.10
2016,08,19,16,39,33.10
2016,08,19,16,40,33.10
2016,08,19,16,41,33.00
2016,08,19,16,42,33.00
2016,08,19,16,43,32.90
2016,08,19,16,44,32.90
2016,08,19,16,45,32.90
2016,08,19,16,46,32.90
2016,08,19,16,47,32.90
2016,08,19,16,48,32.80
2016,08,19,16,49,32.80
2016,08,19,16,50,32.80
2016,08,19,16,51,32.80
2016,08,19,16,52,32.80
2016,08,19,16,53,32.80
2016,08,19,16,54,32.70
2016,08,19,16,55,32.70
2016,08,19,16,56,32.70
2016,08,19,16,57,32.80
2016,08,19,16,58,32.80
2016,08,19,16,59,32.80
2016,08,19,17,00,32.80
2016,08,19,17,01,32.80
2016,08,19,17,02,32.80
2016,08,19,17,03,32.80
2016,08,19,17,04,32.80
2016,08,19,17,05,32.80
2016,08,19,17,06,32.80
2016,08,19,17,07,32.80
2016,08,19,17,08,32.80
2016,08,19,17,09,32.80
2016,08,19,17,10,32.80
2016,08,19,17,11,32.80
2016,08,19,17,12,32.80
2016,08,19,17,13,32.90
2016,08,19,17,14,33.00
2016,08,19,17,15,33.00
2016,08,19,17,16,33.00
2016,08,19,17,17,33.10
2016,08,19,17,18,33.10
2016,08,19,17,19,33.10
2016,08,19,17,20,33.20
2016,08,19,17,21,33.30
2016,08,19,17,22,33.30